Traverse City, MI

1:57 AM EST on December 15, 2017 (GMT -0500)
Cherry Capital

Weather History for KTVC - March, 2014

Change the Weather History Date:

Wednesday, March 19, 2014

  Actual Average Record
Temperature  
Mean Temperature 34 °F 32 °F  
Max Temperature 36 °F 41 °F 83 °F (2012)
Min Temperature 31 °F 23 °F -6 °F (1989)
Degree Days  
Heating Degree Days 31 33  
Month to date heating degree days 870 694  
Since 1 July heating degree days 6592 6034  
Cooling Degree Days 0 0  
Month to date cooling degree days 0 0  
Year to date cooling degree days 0 0  
Moisture  
Dew Point 30 °F    
Average Humidity 83    
Maximum Humidity 96    
Minimum Humidity 70    
Precipitation  
Precipitation 0.11 in 0.06 in 0.68 in (1948)
Month to date precipitation 0.23 1.08  
Year to date precipitation 1.65 5.40  
Snow  
Snow 0.00 in - - ()
Snow Depth 6.00 in    
Sea Level Pressure  
Sea Level Pressure 29.66 in    
Wind  
Wind Speed 7 mph (NNW)    
Max Wind Speed 20 mph    
Max Gust Speed 24 mph    
Visibility 4 miles    
Events Fog , Rain , Snow    
T = Trace of Precipitation, MM = Missing Value Source: NWS Daily Summary

Daily Weather History Graph

Daily Weather History Graph

Search for Another Location

Airport or City:

Trip Planner

Search our weather history database for the weather conditions in past years. The results will help you decide how hot, cold, wet, or windy it might be!

Date:

Astronomy

Mar. 19, 2014 Rise Set
Actual Time 7:47 AM EDT 7:53 PM EDT
Civil Twilight 7:18 AM EDT 8:22 PM EDT
Nautical Twilight 6:44 AM EDT 8:56 PM EDT
Astronomical Twilight 6:09 AM EDT 9:31 PM EDT
Moon 11:20 PM EDT (3/19) 9:05 AM EDT (3/19)
Length of Visible Light 13h 04m
Length of Day
12h 06m
Waning Gibbous, 91% of the Moon is Illuminated
Mar 19
Waning Gibbous
Mar 23
Last Quarter
Mar 30
New
Apr 7
First Quarter
Apr 15
Full

Hourly Weather History & Observations

Time (EDT) Temp. Windchill Dew Point Humidity Pressure Visibility Wind Dir Wind Speed Gust Speed Precip Events Conditions
12:53 AM 36.0 °F 30.3 °F 27.0 °F 70% 29.90 in 10.0 mi ENE 6.9 mph - N/A   Overcast
1:53 AM 35.1 °F 29.3 °F 27.0 °F 72% 29.86 in 10.0 mi East 6.9 mph - N/A   Mostly Cloudy
2:53 AM 35.1 °F 31.0 °F 27.0 °F 72% 29.81 in 10.0 mi ENE 4.6 mph - N/A   Overcast
3:53 AM 35.1 °F 30.1 °F 27.0 °F 72% 29.75 in 10.0 mi East 5.8 mph - N/A   Overcast
4:53 AM 35.1 °F 29.3 °F 27.0 °F 72% 29.71 in 10.0 mi East 6.9 mph - N/A   Overcast
5:53 AM 36.0 °F 32.1 °F 27.0 °F 70% 29.68 in 10.0 mi SE 4.6 mph - N/A   Overcast
6:08 AM 36.0 °F 29.6 °F 27.0 °F 70% 29.66 in 10.0 mi SSE 8.1 mph - N/A   Overcast
6:53 AM 34.0 °F 31.0 °F 30.9 °F 89% 29.66 in 4.0 mi ESE 3.5 mph - 0.00 in Rain Light Rain
7:21 AM 34.0 °F 29.8 °F 30.9 °F 89% 29.64 in 3.0 mi SE 4.6 mph - 0.01 in Rain Light Rain
7:53 AM 34.0 °F 29.8 °F 30.9 °F 89% 29.65 in 3.0 mi ESE 4.6 mph - 0.02 in Rain Light Rain
8:53 AM 34.0 °F 31.0 °F 32.0 °F 92% 29.63 in 3.0 mi NE 3.5 mph - 0.01 in Rain Light Rain
9:53 AM 34.0 °F 31.0 °F 32.0 °F 92% 29.61 in 3.0 mi NNE 3.5 mph - 0.02 in Rain Light Rain
10:22 AM 34.0 °F - 32.0 °F 92% 29.59 in 2.0 mi Calm Calm - 0.01 in Rain Light Rain
10:53 AM 34.0 °F 31.0 °F 32.0 °F 92% 29.60 in 2.0 mi North 3.5 mph - 0.02 in Rain Light Rain
11:21 AM 34.0 °F 31.0 °F 32.0 °F 92% 29.57 in 2.0 mi NNE 3.5 mph - 0.01 in Rain Light Rain
11:53 AM 34.0 °F 31.0 °F 32.0 °F 92% 29.58 in 2.0 mi NE 3.5 mph - 0.01 in Rain Light Rain
12:20 PM 34.0 °F - 33.1 °F 96% 29.56 in 2.0 mi Calm Calm - 0.00 in Rain Light Rain
12:34 PM 35.1 °F - 33.1 °F 92% 29.56 in 1.5 mi Calm Calm - 0.00 in Rain Light Rain
12:53 PM 35.1 °F 31.0 °F 33.1 °F 92% 29.58 in 1.5 mi WNW 4.6 mph - 0.00 in   Overcast
1:10 PM 34.0 °F 31.0 °F 33.1 °F 96% 29.56 in 1.5 mi NW 3.5 mph - N/A   Overcast
1:53 PM 35.1 °F - 33.1 °F 92% 29.57 in 1.5 mi Calm Calm - N/A   Overcast
2:37 PM 35.1 °F - 33.1 °F 92% 29.54 in 1.0 mi Calm Calm - 0.00 in   Light Drizzle
2:53 PM 35.1 °F - 34.0 °F 96% 29.56 in 0.5 mi Calm Calm - 0.00 in Fog Light Drizzle
3:51 PM 35.6 °F 30.7 °F 33.8 °F 93% 29.55 in 1.0 mi WNW 5.8 mph - 0.00 in   Light Drizzle
3:53 PM 35.1 °F 30.1 °F 34.0 °F 96% 29.57 in 1.0 mi WNW 5.8 mph - 0.00 in   Light Drizzle
4:51 PM 33.8 °F 25.3 °F 30.2 °F 87% 29.58 in 2.0 mi NW 11.5 mph - 0.00 in   Overcast
4:53 PM 33.1 °F 24.4 °F 30.9 °F 92% 29.60 in 2.0 mi NW 11.5 mph - 0.00 in   Overcast
5:44 PM 33.1 °F 24.9 °F 30.0 °F 89% 29.61 in 2.0 mi WNW 10.4 mph - 0.00 in Snow Light Snow
5:53 PM 32.0 °F 22.5 °F 30.0 °F 92% 29.64 in 2.0 mi NW 12.7 mph - 0.00 in Snow Light Snow
6:35 PM 32.0 °F 22.5 °F 28.9 °F 88% 29.64 in 7.0 mi NW 12.7 mph - 0.00 in Snow Light Snow
6:53 PM 32.0 °F 23.0 °F 28.9 °F 88% 29.67 in 5.0 mi NW 11.5 mph - 0.00 in Snow Light Snow
7:28 PM 32.0 °F 23.6 °F 28.0 °F 85% 29.66 in 4.0 mi WNW 10.4 mph - 0.00 in Snow Light Snow
7:46 PM 32.0 °F 23.0 °F 28.0 °F 85% 29.68 in 3.0 mi West 11.5 mph - 0.00 in Snow Light Snow
7:53 PM 32.0 °F 23.0 °F 28.0 °F 85% 29.70 in 2.5 mi West 11.5 mph - 0.00 in Snow Light Snow
8:08 PM 32.0 °F 22.1 °F 28.0 °F 85% 29.68 in 3.0 mi West 13.8 mph - 0.00 in Snow Light Snow
8:53 PM 32.0 °F 22.5 °F 28.0 °F 85% 29.72 in 4.0 mi WNW 12.7 mph - 0.00 in Snow Light Snow
9:53 PM 32.0 °F 22.5 °F 28.0 °F 85% 29.74 in 7.0 mi WNW 12.7 mph - 0.00 in Snow Light Snow
10:14 PM 32.0 °F 20.5 °F 28.0 °F 85% 29.72 in 1.8 mi WNW 18.4 mph 24.2 mph 0.00 in Snow Light Snow
10:29 PM 32.0 °F 22.5 °F 28.0 °F 85% 29.73 in 1.2 mi WNW 12.7 mph - 0.00 in Snow Light Snow
10:53 PM 30.9 °F 24.3 °F 28.9 °F 92% 29.75 in 1.2 mi WNW 6.9 mph - 0.00 in Snow Light Snow
11:23 PM 30.9 °F 26.2 °F 30.0 °F 96% 29.74 in 1.2 mi NNW 4.6 mph - 0.01 in Snow Light Snow
11:53 PM 32.0 °F 24.8 °F 28.9 °F 88% 29.77 in 1.2 mi NW 8.1 mph - 0.02 in Snow Light Snow